Weather History for Dutch Harbor, AK

Change the Weather History Date:

Tuesday, March 19, 2013

  Actual Average Record
Temperature  
Mean Temperature 31 °F -  
Max Temperature 34 °F 39 °F 44 °F (1987)
Min Temperature 28 °F 28 °F 16 °F (1952)
Degree Days  
Heating Degree Days 34    
Moisture  
Dew Point 23 °F    
Average Humidity 71    
Maximum Humidity 82    
Minimum Humidity 56    
Precipitation  
Precipitation 0.00 in - - ()
Sea Level Pressure  
Sea Level Pressure 30.45 in    
Wind  
Wind Speed 6 mph (NNE)    
Max Wind Speed 13 mph    
Max Gust Speed 20 mph    
Visibility 10 miles    
Events      
Averages and records for this station are not official NWS values.
T = Trace of Precipitation, MM = Missing Value Source: NWS Daily Summary

Daily Weather History Graph

Daily Weather History Graph

Search for Another Location

Airport:

Trip Planner

Search our weather history database for the weather conditions in past years. The results will help you decide how hot, cold, wet, or windy it might be!

Date:

Astronomy

Mar. 19, 2013 Rise Set
Actual Time 9:09 AM AKDT 9:18 PM AKDT
Civil Twilight 8:34 AM AKDT 9:54 PM AKDT
Nautical Twilight 7:53 AM AKDT 10:35 PM AKDT
Astronomical Twilight 7:09 AM AKDT 11:19 PM AKDT
Moon 1:22 PM AKDT 5:04 AM AKDT
Length of Visible Light 13h 19m
Length of Day
12h 09m
Waxing Crescent, 51% of the Moon is Illuminated
Mar 19
Waxing Crescent
Mar 27
Full
Apr 2
Last Quarter
Apr 10
New
Apr 18
First Quarter

Hourly Weather History & Observations

Time (AKDT) Temp. Windchill Dew Point Humidity Pressure Visibility Wind Dir Wind Speed Gust Speed Precip Events Conditions
12:12 AM 30.2 °F 23.4 °F 24.8 °F 80% 30.44 in 10.0 mi ENE 6.9 mph - N/A   Partly Cloudy
12:56 AM 30.0 °F - 24.1 °F 79% 30.46 in 10.0 mi Calm Calm - N/A   Clear
1:56 AM 28.9 °F - 23.0 °F 78% 30.47 in 10.0 mi Calm Calm - N/A   Clear
2:56 AM 28.0 °F 24.2 °F 23.0 °F 81% 30.47 in 10.0 mi NNE 3.5 mph - N/A   Clear
3:56 AM 28.0 °F 22.8 °F 21.9 °F 78% 30.48 in 10.0 mi SSE 4.6 mph - N/A   Clear
4:56 AM 28.9 °F 21.1 °F 24.1 °F 82% 30.49 in 10.0 mi NE 8.1 mph - N/A   Clear
5:56 AM 30.0 °F 23.2 °F 24.1 °F 79% 30.48 in 10.0 mi North 6.9 mph - N/A   Scattered Clouds
6:12 AM 30.2 °F 25.4 °F 23.0 °F 75% 30.46 in 10.0 mi NE 4.6 mph - N/A   Mostly Cloudy
6:56 AM 30.0 °F 23.2 °F 24.1 °F 79% 30.48 in 10.0 mi NE 6.9 mph - N/A   Overcast
7:56 AM 30.9 °F - 24.1 °F 76% 30.48 in 10.0 mi Calm Calm - N/A   Overcast
8:56 AM 30.9 °F 27.5 °F 24.1 °F 76% 30.48 in 10.0 mi SSE 3.5 mph - N/A   Overcast
9:56 AM 30.9 °F 24.3 °F 24.1 °F 76% 30.48 in 10.0 mi NNW 6.9 mph - N/A   Mostly Cloudy
10:56 AM 32.0 °F 24.8 °F 24.1 °F 73% 30.48 in 10.0 mi North 8.1 mph 16.1 mph N/A   Scattered Clouds
11:56 AM 32.0 °F 23.6 °F 23.0 °F 69% 30.48 in 10.0 mi North 10.4 mph - N/A   Clear
12:56 PM 33.1 °F 26.1 °F 21.9 °F 64% 30.48 in 10.0 mi NNW 8.1 mph 17.3 mph N/A   Partly Cloudy
1:56 PM 34.0 °F 27.2 °F 19.9 °F 56% 30.47 in 10.0 mi North 8.1 mph - N/A   Clear
2:56 PM 34.0 °F 25.5 °F 21.0 °F 59% 30.46 in 10.0 mi North 11.5 mph 19.6 mph N/A   Mostly Cloudy
3:56 PM 34.0 °F 25.0 °F 19.9 °F 56% 30.44 in 10.0 mi North 12.7 mph - N/A   Clear
4:56 PM 33.1 °F 24.9 °F 21.0 °F 61% 30.43 in 10.0 mi North 10.4 mph - N/A   Scattered Clouds
5:56 PM 33.1 °F 24.9 °F 21.9 °F 64% 30.41 in 10.0 mi North 10.4 mph - N/A   Clear
6:56 PM 32.0 °F 23.6 °F 21.0 °F 64% 30.41 in 10.0 mi NNW 10.4 mph 16.1 mph N/A   Clear
7:56 PM 30.9 °F 22.2 °F 21.9 °F 69% 30.40 in 10.0 mi North 10.4 mph 16.1 mph N/A   Scattered Clouds
8:56 PM 30.9 °F 25.2 °F 23.0 °F 72% 30.40 in 10.0 mi Variable 5.8 mph - N/A   Clear
9:56 PM 30.0 °F 26.5 °F 21.9 °F 72% 30.40 in 10.0 mi Variable 3.5 mph - N/A   Clear
10:41 PM 30.2 °F - 21.2 °F 69% 30.38 in 10.0 mi Calm Calm - N/A   Mostly Cloudy
10:56 PM 30.0 °F - 21.9 °F 72% 30.40 in 10.0 mi Calm Calm - N/A   Mostly Cloudy
11:22 PM 30.2 °F 23.4 °F 21.2 °F 69% 30.38 in 10.0 mi ENE 6.9 mph - N/A   Scattered Clouds
11:56 PM 30.0 °F 23.2 °F 21.9 °F 72% 30.40 in 10.0 mi NE 6.9 mph - N/A   Clear